This demonstration page uses our WeatherBlox Daily Observations layout. Learn more.

Left ArrowRight Arrow

41.55636, -103.73856

Hourly Observations for March 23, 2017

Temp ( °F °C ) Dew Point ( °F °C ) Humidity (%) Winds ( mph kmh ) Pressure ( in mb ) Visibility ( mi km ) Precip ( " mm )
12:53 am 00:53 Clear 48 8.9 36 2.2 63 63 ESE 15 24 29.71 1006 10 16 0.00 0.00
1:53 am 01:53 Clear 47 8.3 36 2.2 66 66 E 15 24 29.68 1005 10 16 0.00 0.00
2:53 am 02:53 Clear 45 7.2 35 1.7 68 68 E 13 20 29.66 1004 10 16 0.00 0.00
3:53 am 03:53 Clear 43 6.1 34 1.1 71 71 ESE 12 19 29.63 1004 10 16 0.00 0.00
4:53 am 04:53 Clear 41 5 33 0.6 73 73 ESE 12 19 29.62 1003 10 16 0.00 0.00
5:53 am 05:53 Clear 37 2.8 31 -0.6 79 79 ESE 8 13 29.63 1003 10 16 0.00 0.00
6:53 am 06:53 Sunny 34 1.1 30 -1.1 85 85 ESE 8 13 29.65 1004 8 13 0.00 0.00
7:53 am 07:53 Sunny 37 2.8 33 0.6 86 86 E 7 11 29.66 1004 7 11 0.00 0.00
8:53 am 08:53 Sunny 42 5.6 34 1.1 73 73 Calm 29.65 1004 8 13 0.00 0.00
9:53 am 09:53 Sunny 48 8.9 36 2.2 63 63 W 5 7 29.63 1003 10 16 0.00 0.00
10:53 am 10:53 Sunny 54 12.2 38 3.3 55 55 Calm 29.60 1002 10 16 0.00 0.00
11:53 am 11:53 Sunny 58 14.4 39 3.9 50 50 SSE 12 19 29.58 1002 10 16 0.00 0.00
12:53 pm 12:53 Sunny 64 17.8 40 4.4 41 41 SE 9 15 29.53 1000 10 16 0.00 0.00
1:53 pm 13:53 Sunny 70 21.1 39 3.9 32 32 SE 8 13 29.49 999 10 16 0.00 0.00
2:53 pm 14:53 Sunny 69 20.6 37 2.8 31 31 SE 12 19 29.49 999 10 16 0.00 0.00
3:53 pm 15:53 Partly Cloudy 69 20.6 36 2.2 30 30 E 9 15 29.48 998 10 16 0.00 0.00
4:31 pm 16:31 Cloudy with Nearby Thunderstorms 67 19.4 31 -0.6 26 26 NNE 13 20 29.38 995 10 16 0.00 0.00
4:40 pm 16:40 Cloudy 66 19 34 1 30 30 N 21 33 29.38 995 10 16 0.00 0.00
4:50 pm 16:50 Cloudy with Nearby Thunderstorms 64 18 36 2 34 34 N 23 37 29.44 997 10 16 0.00 0.00
4:53 pm 16:53 Cloudy with Nearby Thunderstorms 64 17.8 37 2.8 37 37 N 18 30 29.53 1000 10 16 0.00 0.00
5:03 pm 17:03 Cloudy with Thunderstorms 63 17 37 3 39 39 N 16 26 29.44 997 10 16 0.00 0.00
5:18 pm 17:18 Cloudy with Light Rain 61 16 43 6 52 52 N 15 24 29.47 998 10 16 0.00 0.00
5:53 pm 17:53 Cloudy 61 16.1 42 5.6 50 50 N 17 28 29.57 1001 10 16 0.01 0.25
6:12 pm 18:12 Cloudy with Thunderstorms 57 14 45 7 63 63 N 28 44 29.53 1000 10 16 0.00 0.00
6:27 pm 18:27 Cloudy with Light Rain 56 13.3 45 7.2 67 67 N 31 50 29.56 1001 10 16 0.00 0.03
6:53 pm 18:53 Partly Cloudy 52 11.1 44 6.7 75 75 N 26 43 29.65 1004 10 16 0.00 0.03
7:13 pm 19:13 Mostly Cloudy with Thunderstorms 52 11.1 43 6.1 72 72 N 26 43 29.62 1003 10 16 0.00 0.00
7:38 pm 19:38 Cloudy with Nearby Thunderstorms 50 10 43 6 76 76 NNE 22 35 29.68 1005 10 16 0.00 0.00
7:49 pm 19:49 Cloudy with Light Rain 48 9 43 6 82 82 N 21 33 29.71 1006 10 16 0.00 0.03
7:53 pm 19:53 Cloudy with Light Rain 49 9.4 43 6.1 80 80 N 17 28 29.75 1007 10 16 0.00 0.03
7:59 pm 19:59 Cloudy with Light Rain 49 9.4 42 5.6 77 77 N 20 31 29.74 1007 10 16 0.00 0.03
8:53 pm 20:53 Cloudy with Light Rain 46 7.8 41 5 83 83 N 25 41 29.78 1009 10 16 0.02 0.51
9:53 pm 21:53 Cloudy with Light Rain 45 7.2 41 5 86 86 N 18 30 29.78 1009 10 16 0.03 0.76
10:13 pm 22:13 Cloudy with Light Rain 45 7.2 41 5 86 86 NNW 15 24 29.85 1011 10 16 0.01 0.25
10:53 pm 22:53 Cloudy with Light Rain 44 6.7 40 4.4 85 85 N 21 33 29.84 1011 10 16 0.01 0.25
11:53 pm 23:53 Cloudy 43 6.1 39 3.9 86 86 NNW 20 31 29.80 1009 10 16 0.00 0.03

Powered by AerisWeather